,,Stat5,,Stat1,,Stat2,,Stat3,,Stat4,,Wind1,,Wind1,
time,status,PA1M_AVG,status,PR1M_SUM,status,RH1M_AVG,status,SR1M_AVG,status,TA1M_AVG,status,W1dAve1m,status,W1sAve1m,
2001-09-26, 00:00:00,VALID,917.279,VALID,0,VALID,98.2493,VALID,-0.0169808,VALID,19.6123,VALID,91,VALID,0,
2001-09-26, 00:01:00,VALID,917.277,VALID,0,VALID,98.2607,VALID,-0.0169808,VALID,19.6284,VALID,91,VALID,0,
2001-09-26, 00:02:00,VALID,917.239,VALID,0,VALID,98.1857,VALID,0,VALID,19.6185,VALID,91,VALID,0,
2001-09-26, 00:03:00,VALID,917.254,VALID,0,VALID,98.1844,VALID,0,VALID,19.6056,VALID,91,VALID,0,
2001-09-26, 00:04:00,VALID,917.228,VALID,0,VALID,98.1793,VALID,0,VALID,19.6018,VALID,91,VALID,0,
2001-09-26, 00:05:00,VALID,917.216,VALID,0,VALID,98.1946,VALID,0,VALID,19.6088,VALID,91,VALID,0,
2001-09-26, 00:06:01,VALID,917.217,VALID,0,VALID,98.2124,VALID,-0.0169808,VALID,19.6217,VALID,91,VALID,0,
2001-09-26, 00:07:00,VALID,917.223,VALID,0,VALID,98.2098,VALID,0,VALID,19.6341,VALID,91,VALID,0,
2001-09-26, 00:08:00,VALID,917.224,VALID,0,VALID,98.1106,VALID,-0.0169808,VALID,19.5954,VALID,91,VALID,0,
2001-09-26, 00:09:01,VALID,917.231,VALID,0,VALID,98.0738,VALID,-0.0169808,VALID,19.5896,VALID,91,VALID,0,
2001-09-26, 00:10:00,VALID,917.236,VALID,0,VALID,98.0547,VALID,0,VALID,19.5832,VALID,91,VALID,0,
2001-09-26, 00:11:00,VALID,917.224,VALID,0,VALID,97.9708,VALID,0,VALID,19.5536,VALID,91,VALID,0,
2001-09-26, 00:12:01,VALID,917.228,VALID,0,VALID,97.8779,VALID,0,VALID,19.528,VALID,91,VALID,0,
2001-09-26, 00:13:00,VALID,917.234,VALID,0,VALID,97.9771,VALID,0,VALID,19.5186,VALID,91,VALID,0,
2001-09-26, 00:14:00,VALID,917.243,VALID,0,VALID,98.1742,VALID,0,VALID,19.5539,VALID,91,VALID,0,
2001-09-26, 00:15:00,VALID,917.24,VALID,0,VALID,98.2098,VALID,0,VALID,19.5862,VALID,89,VALID,0,
2001-09-26, 00:16:00,VALID,917.229,VALID,0,VALID,98.0293,VALID,-0.0169808,VALID,19.5534,VALID,86,VALID,0,
2001-09-26, 00:17:01,VALID,917.229,VALID,0,VALID,98.1641,VALID,0,VALID,19.5442,VALID,86,VALID,0,
2001-09-26, 00:18:00,VALID,917.23,VALID,0,VALID,98.1017,VALID,0,VALID,19.535,VALID,87,VALID,0,
2001-09-26, 00:19:01,VALID,917.227,VALID,0,VALID,98.1653,VALID,-0.0169808,VALID,19.5154,VALID,81,VALID,0.207137,
2001-09-26, 00:20:00,VALID,917.238,VALID,0,VALID,98.1043,VALID,0,VALID,19.5099,VALID,69,VALID,0.663857,
2001-09-26, 00:21:00,VALID,917.251,VALID,0,VALID,98.0674,VALID,-0.0169808,VALID,19.4572,VALID,65,VALID,0.465946,
2001-09-26, 00:22:00,VALID,917.261,VALID,0,VALID,98.1081,VALID,0,VALID,19.4281,VALID,49,VALID,0.498798,
2001-09-26, 00:23:00,VALID,917.256,VALID,0,VALID,98.0827,VALID,0,VALID,19.4085,VALID,47,VALID,0.459789,
2001-09-26, 00:24:00,VALID,917.265,VALID,0,VALID,98.0229,VALID,-0.0339617,VALID,19.3864,VALID,42,VALID,0.670436,
2001-09-26, 00:25:00,VALID,917.244,VALID,0,VALID,98.1844,VALID,0.0169808,VALID,19.3929,VALID,36,VALID,0.84565,
2001-09-26, 00:26:00,VALID,917.24,VALID,0,VALID,98.2874,VALID,0,VALID,19.4219,VALID,35,VALID,0.784722,
2001-09-26, 00:27:01,VALID,917.225,VALID,0,VALID,98.1869,VALID,0,VALID,19.3827,VALID,32,VALID,0.708767,
2001-09-26, 00:28:00,VALID,917.225,VALID,0,VALID,98.2073,VALID,0,VALID,19.3837,VALID,32,VALID,0.614104,
2001-09-26, 00:29:01,VALID,917.212,VALID,0,VALID,98.3434,VALID,-0.0169808,VALID,19.3929,VALID,30,VALID,0.658512,
2001-09-26, 00:30:00,VALID,917.2,VALID,0,VALID,98.3853,VALID,-0.0169808,VALID,19.4058,VALID,23,VALID,0.583116,
2001-09-26, 00:31:00,VALID,917.206,VALID,0,VALID,98.4298,VALID,-0.0169808,VALID,19.4256,VALID,23,VALID,0.273214,
2001-09-26, 00:32:01,VALID,917.2,VALID,0,VALID,98.4464,VALID,0,VALID,19.4316,VALID,12,VALID,0.204153,
2001-09-26, 00:33:01,VALID,917.191,VALID,0,VALID,98.5061,VALID,-0.0169808,VALID,19.4674,VALID,334,VALID,0.378806,
2001-09-26, 00:34:01,VALID,917.169,VALID,0,VALID,98.5773,VALID,-0.0169808,VALID,19.5062,VALID,321,VALID,0.19375,
2001-09-26, 00:35:00,VALID,917.156,VALID,0,VALID,98.5989,VALID,-0.0169808,VALID,19.5154,VALID,13,VALID,0.231908,
2001-09-26, 00:36:00,VALID,917.133,VALID,0,VALID,98.6206,VALID,0,VALID,19.5385,VALID,14,VALID,0.0160362,
2001-09-26, 00:37:01,VALID,917.117,VALID,0,VALID,98.6282,VALID,0,VALID,19.5544,VALID,14,VALID,0,
2001-09-26, 00:38:01,VALID,917.115,VALID,0,VALID,98.6346,VALID,-0.0169808,VALID,19.5511,VALID,14,VALID,0,
2001-09-26, 00:39:01,VALID,917.103,VALID,0,VALID,98.6218,VALID,0,VALID,19.5477,VALID,14,VALID,0,
2001-09-26, 00:40:01,VALID,917.079,VALID,0,VALID,98.6282,VALID,0,VALID,19.5675,VALID,14,VALID,0,
2001-09-26, 00:41:00,VALID,917.059,VALID,0,VALID,98.6358,VALID,-0.0169808,VALID,19.5705,VALID,14,VALID,0,
2001-09-26, 00:42:01,VALID,917.044,VALID,0,VALID,98.6435,VALID,0,VALID,19.5834,VALID,14,VALID,0,
2001-09-26, 00:43:01,VALID,917.028,VALID,0,VALID,98.6524,VALID,-0.0339617,VALID,19.5636,VALID,14,VALID,0,
2001-09-26, 00:44:00,VALID,917.01,VALID,0,VALID,98.6307,VALID,-0.0169808,VALID,19.5708,VALID,18,VALID,0.211149,
2001-09-26, 00:45:00,VALID,916.991,VALID,0,VALID,98.6218,VALID,-0.0169808,VALID,19.5641,VALID,21,VALID,0.248561,
2001-09-26, 00:46:01,VALID,916.968,VALID,0,VALID,98.6384,VALID,-0.0339617,VALID,19.571,VALID,24,VALID,0.0885417,
2001-09-26, 00:47:01,VALID,916.963,VALID,0,VALID,98.6447,VALID,-0.0339617,VALID,19.5675,VALID,24,VALID,0.0337838,
2001-09-26, 00:48:01,VALID,916.948,VALID,0,VALID,98.6155,VALID,-0.0339617,VALID,19.5616,VALID,24,VALID,0.465278,
2001-09-26, 00:49:01,VALID,916.938,VALID,0,VALID,98.5926,VALID,-0.0169808,VALID,19.5419,VALID,20,VALID,0.488281,
2001-09-26, 00:50:01,VALID,916.938,VALID,0,VALID,98.5811,VALID,-0.0339617,VALID,19.5355,VALID,15,VALID,0.287162,
2001-09-26, 00:51:01,VALID,916.91,VALID,0,VALID,98.5633,VALID,0,VALID,19.5288,VALID,15,VALID,0.328316,
2001-09-26, 00:52:01,VALID,916.906,VALID,0,VALID,98.5468,VALID,0,VALID,19.5226,VALID,15,VALID,0.336133,
2001-09-26, 00:53:01,VALID,916.891,VALID,0,VALID,98.5328,VALID,-0.0169808,VALID,19.499,VALID,12,VALID,0.209498,
2001-09-26, 00:54:01,VALID,916.879,VALID,0,VALID,98.5048,VALID,0,VALID,19.5024,VALID,354,VALID,0.301943,
2001-09-26, 00:55:01,VALID,916.843,VALID,0,VALID,98.5048,VALID,-0.0169808,VALID,19.5121,VALID,354,VALID,0.0142578,
2001-09-26, 00:56:01,VALID,916.827,VALID,0,VALID,98.4667,VALID,-0.0169808,VALID,19.5253,VALID,360,VALID,0.385485,
2001-09-26, 00:57:01,VALID,916.805,VALID,0,VALID,98.4362,VALID,-0.0169808,VALID,19.5151,VALID,12,VALID,0.572098,
2001-09-26, 00:58:01,VALID,916.777,VALID,0,VALID,98.3815,VALID,0,VALID,19.5119,VALID,11,VALID,0.331731,
2001-09-26, 00:59:01,VALID,916.738,VALID,0,VALID,98.3612,VALID,-0.0169808,VALID,19.5283,VALID,11,VALID,0.207899,
2001-09-26, 01:00:01,VALID,916.712,VALID,0,VALID,98.3154,VALID,-0.0169808,VALID,19.5442,VALID,11,VALID,0.00464527,
2001-09-26, 01:01:01,VALID,916.679,VALID,0,VALID,98.2721,VALID,0,VALID,19.5636,VALID,11,VALID,0.0010016,
2001-09-26, 01:02:01,VALID,916.661,VALID,0,VALID,98.1946,VALID,0,VALID,19.5733,VALID,11,VALID,0,
2001-09-26, 01:03:01,VALID,916.635,VALID,0,VALID,98.0954,VALID,0,VALID,19.57,VALID,11,VALID,0.113487,
2001-09-26, 01:04:01,VALID,916.606,VALID,0,VALID,98.0433,VALID,-0.0169808,VALID,19.5901,VALID,10,VALID,0.117399,
2001-09-26, 01:05:01,VALID,916.573,VALID,0,VALID,97.9822,VALID,-0.0339617,VALID,19.6195,VALID,10,VALID,0.00824653,
2001-09-26, 01:06:01,VALID,916.542,VALID,0,VALID,97.8614,VALID,0,VALID,19.6152,VALID,10,VALID,0,
2001-09-26, 01:07:00,VALID,916.506,VALID,0,VALID,97.7254,VALID,0,VALID,19.6187,VALID,10,VALID,0.0415296,
2001-09-26, 01:08:00,VALID,916.453,VALID,0,VALID,97.5842,VALID,0,VALID,19.6058,VALID,17,VALID,0.39403,
2001-09-26, 01:09:00,VALID,916.427,VALID,0,VALID,97.499,VALID,0,VALID,19.6152,VALID,30,VALID,0.537059,
2001-09-26, 01:10:00,VALID,916.399,VALID,0,VALID,97.3604,VALID,-0.0169808,VALID,19.6026,VALID,32,VALID,0.613598,
2001-09-26, 01:11:00,VALID,916.372,VALID,0,VALID,97.1989,VALID,-0.0169808,VALID,19.5934,VALID,28,VALID,0.616776,
2001-09-26, 01:12:00,VALID,916.348,VALID,0,VALID,97.0946,VALID,-0.0169808,VALID,19.567,VALID,22,VALID,0.367188,
2001-09-26, 01:13:00,VALID,916.322,VALID,0,VALID,96.9153,VALID,-0.0169808,VALID,19.5437,VALID,13,VALID,0.545673,
2001-09-26, 01:14:00,VALID,916.3,VALID,0,VALID,96.8174,VALID,0,VALID,19.541,VALID,13,VALID,0.218061,
2001-09-26, 01:15:00,VALID,916.267,VALID,0,VALID,96.6954,VALID,-0.0169808,VALID,19.538,VALID,13,VALID,0.16838,
2001-09-26, 01:16:00,VALID,916.24,VALID,0,VALID,96.6585,VALID,0,VALID,19.535,VALID,13,VALID,0.301731,
2001-09-26, 01:17:00,VALID,916.22,VALID,0,VALID,96.7004,VALID,-0.0169808,VALID,19.5516,VALID,13,VALID,0.281467,
2001-09-26, 01:18:00,VALID,916.202,VALID,0,VALID,96.6318,VALID,-0.0169808,VALID,19.5444,VALID,13,VALID,0.352648,
2001-09-26, 01:19:00,VALID,916.174,VALID,0,VALID,96.4894,VALID,0,VALID,19.531,VALID,13,VALID,0.447574,
2001-09-26, 01:20:00,VALID,916.142,VALID,0,VALID,96.4359,VALID,0.0169808,VALID,19.5084,VALID,13,VALID,0.620271,
2001-09-26, 01:21:00,VALID,916.116,VALID,0,VALID,96.4563,VALID,0,VALID,19.4858,VALID,13,VALID,0.518663,
2001-09-26, 01:22:00,VALID,916.089,VALID,0,VALID,96.469,VALID,-0.0339617,VALID,19.4629,VALID,13,VALID,0.629241,
2001-09-26, 01:23:00,VALID,916.046,VALID,0,VALID,96.4461,VALID,-0.0339617,VALID,19.4505,VALID,15,VALID,0.609375,
2001-09-26, 01:24:00,VALID,916.019,VALID,0,VALID,96.3724,VALID,-0.0339617,VALID,19.4217,VALID,28,VALID,0.58133,
2001-09-26, 01:25:00,VALID,915.995,VALID,0,VALID,96.4067,VALID,-0.0509425,VALID,19.4093,VALID,28,VALID,0.481836,
2001-09-26, 01:26:00,VALID,915.963,VALID,0,VALID,96.3533,VALID,-0.0509425,VALID,19.3958,VALID,12,VALID,0.719572,
2001-09-26, 01:27:00,VALID,915.948,VALID,0,VALID,96.2668,VALID,-0.0509425,VALID,19.3896,VALID,6,VALID,0.818873,
2001-09-26, 01:28:00,VALID,915.935,VALID,0,VALID,96.2719,VALID,-0.0169808,VALID,19.3859,VALID,355,VALID,0.725361,
2001-09-26, 01:29:00,VALID,915.942,VALID,0,VALID,96.2617,VALID,-0.0849042,VALID,19.4055,VALID,347,VALID,0.259615,
2001-09-26, 01:30:00,VALID,915.932,VALID,0,VALID,96.2223,VALID,0,VALID,19.4286,VALID,14,VALID,0.376202,
2001-09-26, 01:31:00,VALID,915.932,VALID,0,VALID,96.1893,VALID,-0.0509425,VALID,19.451,VALID,19,VALID,0.180607,
2001-09-26, 01:32:00,VALID,915.933,VALID,0,VALID,96.1079,VALID,-0.0169808,VALID,19.4609,VALID,18,VALID,0.150977,
2001-09-26, 01:33:00,VALID,915.917,VALID,0,VALID,96.0888,VALID,-0.0169808,VALID,19.4642,VALID,18,VALID,0,
2001-09-26, 01:34:00,VALID,915.899,VALID,0,VALID,96.0468,VALID,0,VALID,19.4739,VALID,357,VALID,0,
2001-09-26, 01:35:00,VALID,915.887,VALID,0,VALID,95.9972,VALID,-0.0339617,VALID,19.4741,VALID,283,VALID,0,
2001-09-26, 01:36:00,VALID,915.881,VALID,0,VALID,96.0049,VALID,-0.0169808,VALID,19.4831,VALID,280,VALID,0,
2001-09-26, 01:37:00,VALID,915.859,VALID,0,VALID,96.0634,VALID,-0.0339617,VALID,19.4932,VALID,280,VALID,0,
2001-09-26, 01:38:00,VALID,915.847,VALID,0,VALID,96.1715,VALID,-0.0509425,VALID,19.5091,VALID,318,VALID,0,
2001-09-26, 01:39:00,VALID,915.842,VALID,0,VALID,96.1549,VALID,0,VALID,19.5253,VALID,14,VALID,0.166884,
2001-09-26, 01:40:00,VALID,915.824,VALID,0,VALID,95.8345,VALID,-0.0169808,VALID,19.4995,VALID,17,VALID,0.495477,
2001-09-26, 01:41:00,VALID,915.802,VALID,0,VALID,95.7099,VALID,-0.0509425,VALID,19.4868,VALID,357,VALID,0.709882,
2001-09-26, 01:42:00,VALID,915.788,VALID,0,VALID,95.6971,VALID,-0.0679233,VALID,19.497,VALID,9,VALID,0.812309,
2001-09-26, 01:43:00,VALID,915.76,VALID,0,VALID,95.5573,VALID,-0.0509425,VALID,19.4999,VALID,17,VALID,1.4084,
2001-09-26, 01:44:00,VALID,915.743,VALID,0,VALID,95.2076,VALID,-0.0849042,VALID,19.4962,VALID,16,VALID,1.47163,
2001-09-26, 01:45:00,VALID,915.723,VALID,0,VALID,95.0499,VALID,-0.0509425,VALID,19.529,VALID,21,VALID,1.07264,
2001-09-26, 01:46:00,VALID,915.713,VALID,0,VALID,94.9456,VALID,-0.0339617,VALID,19.541,VALID,15,VALID,0.900977,
2001-09-26, 01:47:00,VALID,915.71,VALID,0,VALID,94.9113,VALID,0.0509425,VALID,19.5434,VALID,326,VALID,0.814556,
2001-09-26, 01:48:00,VALID,915.721,VALID,0,VALID,94.8261,VALID,0.0849042,VALID,19.5695,VALID,280,VALID,0.486607,
2001-09-26, 01:49:00,VALID,915.721,VALID,0,VALID,94.8515,VALID,0.101885,VALID,19.5976,VALID,260,VALID,0.257212,
2001-09-26, 01:50:00,VALID,915.72,VALID,0,VALID,94.9444,VALID,0.0509425,VALID,19.6075,VALID,281,VALID,0.0338542,
2001-09-26, 01:51:00,VALID,915.702,VALID,0,VALID,94.9927,VALID,0.0509425,VALID,19.6145,VALID,24,VALID,0.486064,
2001-09-26, 01:52:00,VALID,915.692,VALID,0,VALID,94.7778,VALID,0.0849042,VALID,19.5889,VALID,16,VALID,0.822516,
2001-09-26, 01:53:00,VALID,915.695,VALID,0,VALID,94.6023,VALID,0.0849042,VALID,19.5367,VALID,348,VALID,0.506579,
2001-09-26, 01:54:00,VALID,915.721,VALID,0,VALID,94.6379,VALID,0.0679233,VALID,19.5268,VALID,289,VALID,0.197368,
2001-09-26, 01:55:00,VALID,915.724,VALID,0,VALID,94.9266,VALID,0.0849042,VALID,19.5333,VALID,344,VALID,0.247677,
2001-09-26, 01:56:00,VALID,915.698,VALID,0,VALID,95.2355,VALID,0.0679233,VALID,19.5501,VALID,15,VALID,0.980686,
2001-09-26, 01:57:00,VALID,915.711,VALID,0,VALID,95.3068,VALID,0.101885,VALID,19.5365,VALID,27,VALID,0.554899,
2001-09-26, 01:58:00,VALID,915.717,VALID,0,VALID,95.3207,VALID,0.0679233,VALID,19.5308,VALID,267,VALID,0.38898,
2001-09-26, 01:59:00,VALID,915.722,VALID,0,VALID,95.8612,VALID,0.101885,VALID,19.5308,VALID,245,VALID,0.361579,
2001-09-26, 02:00:00,VALID,915.732,VALID,0,VALID,96.2058,VALID,0.101885,VALID,19.5238,VALID,273,VALID,0.28746,
2001-09-26, 02:01:00,VALID,915.728,VALID,0,VALID,96.3876,VALID,0.0339617,VALID,19.5149,VALID,334,VALID,0.434544,
2001-09-26, 02:02:00,VALID,915.724,VALID,0,VALID,96.4715,VALID,-0.0169808,VALID,19.4997,VALID,336,VALID,0.110814,
2001-09-26, 02:03:00,VALID,915.718,VALID,0,VALID,96.5517,VALID,0,VALID,19.4965,VALID,333,VALID,0,
2001-09-26, 02:04:00,VALID,915.721,VALID,0,VALID,96.6,VALID,0,VALID,19.4706,VALID,333,VALID,0,
2001-09-26, 02:05:00,VALID,915.73,VALID,0,VALID,96.6725,VALID,0,VALID,19.4579,VALID,351,VALID,0.048943,
2001-09-26, 02:06:00,VALID,915.731,VALID,0,VALID,96.7818,VALID,0,VALID,19.4478,VALID,1,VALID,0.0102796,
2001-09-26, 02:07:00,VALID,915.746,VALID,0,VALID,96.6534,VALID,0,VALID,19.4122,VALID,1,VALID,0.11761,
2001-09-26, 02:08:00,VALID,915.753,VALID,0,VALID,96.6521,VALID,-0.0169808,VALID,19.3737,VALID,1,VALID,0.000434028,
2001-09-26, 02:09:00,VALID,915.75,VALID,0,VALID,96.8975,VALID,0,VALID,19.3702,VALID,333,VALID,0.0377604,
2001-09-26, 02:10:00,VALID,915.771,VALID,0,VALID,97.1506,VALID,0,VALID,19.3866,VALID,321,VALID,0.172903,
2001-09-26, 02:11:00,VALID,915.76,VALID,0,VALID,97.1748,VALID,-0.0169808,VALID,19.377,VALID,321,VALID,0,
2001-09-26, 02:12:00,VALID,915.776,VALID,0,VALID,97.0234,VALID,0,VALID,19.3255,VALID,321,VALID,0.0292969,
2001-09-26, 02:13:00,VALID,915.768,VALID,0,VALID,96.9827,VALID,0,VALID,19.2994,VALID,321,VALID,0.000446429,
2001-09-26, 02:14:00,VALID,915.77,VALID,0,VALID,96.839,VALID,0,VALID,19.2408,VALID,321,VALID,0.178248,
2001-09-26, 02:15:00,VALID,915.782,VALID,0,VALID,96.909,VALID,-0.0169808,VALID,19.202,VALID,229,VALID,0.221554,
2001-09-26, 02:16:00,VALID,915.782,VALID,0,VALID,96.9306,VALID,-0.0169808,VALID,19.1739,VALID,177,VALID,0.332617,
2001-09-26, 02:17:00,VALID,915.782,VALID,0,VALID,96.9853,VALID,0,VALID,19.1409,VALID,177,VALID,0.806538,
2001-09-26, 02:18:00,VALID,915.782,VALID,0,VALID,97.0959,VALID,0,VALID,19.1084,VALID,164,VALID,0.447163,
2001-09-26, 02:19:00,VALID,915.779,VALID,0,VALID,97.2154,VALID,0,VALID,19.1026,VALID,149,VALID,0.362981,
2001-09-26, 02:20:00,VALID,915.772,VALID,0,VALID,97.3693,VALID,-0.0169808,VALID,19.1022,VALID,157,VALID,0.538261,
2001-09-26, 02:21:00,VALID,915.768,VALID,0,VALID,97.4024,VALID,0,VALID,19.1029,VALID,163,VALID,0.497997,
2001-09-26, 02:22:00,VALID,915.753,VALID,0,VALID,97.4469,VALID,0,VALID,19.0833,VALID,161,VALID,0.515395,
2001-09-26, 02:23:00,VALID,915.754,VALID,0,VALID,97.6096,VALID,-0.0169808,VALID,19.0897,VALID,163,VALID,0.72168,
2001-09-26, 02:24:00,VALID,915.75,VALID,0,VALID,97.6948,VALID,0,VALID,19.0932,VALID,163,VALID,0.738715,
2001-09-26, 02:25:00,VALID,915.734,VALID,0,VALID,97.7355,VALID,0,VALID,19.0897,VALID,164,VALID,0.634115,
2001-09-26, 02:26:00,VALID,915.734,VALID,0,VALID,97.836,VALID,0,VALID,19.0922,VALID,163,VALID,0.509079,
2001-09-26, 02:27:00,VALID,915.727,VALID,0,VALID,97.9085,VALID,-0.0169808,VALID,19.1225,VALID,158,VALID,0.164474,
2001-09-26, 02:28:00,VALID,915.711,VALID,0,VALID,97.9542,VALID,0,VALID,19.1218,VALID,142,VALID,0.0616319,
2001-09-26, 02:29:00,VALID,915.704,VALID,0,VALID,97.7991,VALID,-0.0169808,VALID,19.086,VALID,59,VALID,0.435811,
2001-09-26, 02:30:00,VALID,915.686,VALID,0,VALID,97.8055,VALID,0,VALID,19.0701,VALID,82,VALID,0.5102,
2001-09-26, 02:31:00,VALID,915.685,VALID,0,VALID,97.808,VALID,0.0169808,VALID,19.0542,VALID,83,VALID,0.471012,
2001-09-26, 02:32:00,VALID,915.671,VALID,0,VALID,97.9746,VALID,0,VALID,19.0637,VALID,86,VALID,0.804476,
2001-09-26, 02:33:00,VALID,915.675,VALID,0,VALID,98.0852,VALID,0,VALID,19.0733,VALID,85,VALID,0.673399,
2001-09-26, 02:34:00,VALID,915.674,VALID,0,VALID,98.0789,VALID,-0.0169808,VALID,19.0902,VALID,78,VALID,0.609375,
2001-09-26, 02:35:00,VALID,915.662,VALID,0,VALID,98.0369,VALID,-0.0169808,VALID,19.08,VALID,71,VALID,0.917558,
2001-09-26, 02:36:00,VALID,915.652,VALID,0,VALID,98.0394,VALID,0,VALID,19.0897,VALID,66,VALID,0.67462,
2001-09-26, 02:37:00,VALID,915.638,VALID,0,VALID,97.9085,VALID,0,VALID,19.0803,VALID,52,VALID,0.762891,
2001-09-26, 02:38:00,VALID,915.636,VALID,0,VALID,97.8538,VALID,-0.0169808,VALID,19.0867,VALID,56,VALID,0.686472,
2001-09-26, 02:39:00,VALID,915.615,VALID,0,VALID,97.8284,VALID,-0.0339617,VALID,19.1001,VALID,48,VALID,0.504911,
2001-09-26, 02:40:00,VALID,915.611,VALID,0,VALID,97.6961,VALID,-0.0169808,VALID,19.0934,VALID,31,VALID,0.611579,
2001-09-26, 02:41:00,VALID,915.596,VALID,0,VALID,97.4621,VALID,-0.0169808,VALID,19.0766,VALID,28,VALID,0.625868,
2001-09-26, 02:42:00,VALID,915.587,VALID,0,VALID,97.115,VALID,0,VALID,19.051,VALID,23,VALID,0.663851,
2001-09-26, 02:43:00,VALID,915.568,VALID,0,VALID,97.1366,VALID,-0.0169808,VALID,19.0475,VALID,8,VALID,0.781651,
2001-09-26, 02:44:00,VALID,915.546,VALID,0,VALID,97.2383,VALID,0,VALID,19.0763,VALID,6,VALID,1.05469,
2001-09-26, 02:45:00,VALID,915.543,VALID,0,VALID,97.148,VALID,-0.0169808,VALID,19.1188,VALID,6,VALID,0.829359,
2001-09-26, 02:46:00,VALID,915.537,VALID,0,VALID,96.9802,VALID,0,VALID,19.131,VALID,10,VALID,0.822002,
2001-09-26, 02:47:00,VALID,915.54,VALID,0,VALID,96.6534,VALID,-0.0169808,VALID,19.1446,VALID,17,VALID,0.750868,
2001-09-26, 02:48:00,VALID,915.532,VALID,0,VALID,96.3139,VALID,-0.0169808,VALID,19.116,VALID,29,VALID,0.65815,
2001-09-26, 02:49:00,VALID,915.545,VALID,0,VALID,96.2109,VALID,-0.0169808,VALID,19.0999,VALID,26,VALID,0.612048,
2001-09-26, 02:50:00,VALID,915.543,VALID,0,VALID,96.1346,VALID,-0.0169808,VALID,19.0644,VALID,23,VALID,0.724559,
2001-09-26, 02:51:00,VALID,915.539,VALID,0,VALID,96.1931,VALID,0,VALID,19.0381,VALID,17,VALID,0.682292,
2001-09-26, 02:52:00,VALID,915.533,VALID,0,VALID,96.1905,VALID,0,VALID,19.0217,VALID,16,VALID,0.436233,
2001-09-26, 02:53:00,VALID,915.541,VALID,0,VALID,96.2121,VALID,0,VALID,19.0055,VALID,16,VALID,0.367599,
2001-09-26, 02:54:00,VALID,915.54,VALID,0,VALID,95.8955,VALID,0,VALID,18.9737,VALID,15,VALID,0.422276,
2001-09-26, 02:55:00,VALID,915.539,VALID,0,VALID,95.8815,VALID,0,VALID,18.9022,VALID,15,VALID,0.711138,
2001-09-26, 02:56:00,VALID,915.537,VALID,0,VALID,96.2249,VALID,0,VALID,18.8895,VALID,17,VALID,0.828585,
2001-09-26, 02:57:00,VALID,915.528,VALID,0,VALID,96.3279,VALID,0,VALID,18.8701,VALID,17,VALID,0.775493,
2001-09-26, 02:58:00,VALID,915.52,VALID,0,VALID,96.4614,VALID,-0.0339617,VALID,18.8574,VALID,16,VALID,0.9394,
2001-09-26, 02:59:00,VALID,915.507,VALID,0,VALID,96.5682,VALID,-0.0169808,VALID,18.8703,VALID,18,VALID,0.914714,
2001-09-26, 03:00:00,VALID,915.483,VALID,0,VALID,96.352,VALID,0,VALID,18.8346,VALID,9,VALID,0.818793,
2001-09-26, 03:01:00,VALID,915.476,VALID,0,VALID,96.7335,VALID,-0.0169808,VALID,18.8537,VALID,10,VALID,1.3384,
2001-09-26, 03:02:00,VALID,915.462,VALID,0,VALID,96.8937,VALID,-0.0169808,VALID,18.9583,VALID,15,VALID,1.56497,
2001-09-26, 03:03:00,VALID,915.446,VALID,0,VALID,96.6674,VALID,-0.0679233,VALID,19.0067,VALID,17,VALID,1.31858,
2001-09-26, 03:04:00,VALID,915.438,VALID,0,VALID,96.3838,VALID,-0.0339617,VALID,19.0482,VALID,12,VALID,1.20156,
2001-09-26, 03:05:00,VALID,915.435,VALID,0,VALID,96.2058,VALID,-0.0169808,VALID,19.0773,VALID,9,VALID,1.05715,
2001-09-26, 03:06:00,VALID,915.422,VALID,0,VALID,96.0494,VALID,-0.0169808,VALID,19.1001,VALID,6,VALID,1.01462,
2001-09-26, 03:07:00,VALID,915.42,VALID,0,VALID,96.0456,VALID,-0.0169808,VALID,19.1287,VALID,11,VALID,1.19492,
2001-09-26, 03:08:00,VALID,915.404,VALID,0,VALID,96.0354,VALID,-0.0339617,VALID,19.1809,VALID,7,VALID,1.19901,
2001-09-26, 03:09:00,VALID,915.381,VALID,0,VALID,95.9629,VALID,-0.0509425,VALID,19.2127,VALID,9,VALID,1.3604,
2001-09-26, 03:10:00,VALID,915.36,VALID,0,VALID,95.6997,VALID,-0.0169808,VALID,19.2517,VALID,15,VALID,1.07111,
2001-09-26, 03:11:00,VALID,915.335,VALID,0,VALID,95.3691,VALID,-0.0169808,VALID,19.2353,VALID,20,VALID,1.05329,
2001-09-26, 03:12:00,VALID,915.311,VALID,0,VALID,95.4263,VALID,-0.0339617,VALID,19.2291,VALID,6,VALID,1.07452,
2001-09-26, 03:13:00,VALID,915.291,VALID,0,VALID,95.6921,VALID,0,VALID,19.2517,VALID,3,VALID,1.18543,
2001-09-26, 03:14:00,VALID,915.284,VALID,0,VALID,95.7505,VALID,-0.0169808,VALID,19.3069,VALID,356,VALID,1.27656,
2001-09-26, 03:15:00,VALID,915.274,VALID,0,VALID,95.5369,VALID,-0.0169808,VALID,19.3389,VALID,336,VALID,0.642144,
2001-09-26, 03:16:00,VALID,915.27,VALID,0,VALID,95.4034,VALID,0,VALID,19.3359,VALID,263,VALID,0.353299,
2001-09-26, 03:17:00,VALID,915.252,VALID,0,VALID,95.411,VALID,-0.0169808,VALID,19.2964,VALID,291,VALID,0.423142,
2001-09-26, 03:18:00,VALID,915.236,VALID,0,VALID,95.528,VALID,0,VALID,19.2676,VALID,286,VALID,0.41139,
2001-09-26, 03:19:00,VALID,915.232,VALID,0,VALID,95.6997,VALID,-0.0169808,VALID,19.2192,VALID,290,VALID,0.109375,
2001-09-26, 03:20:00,VALID,915.219,VALID,0,VALID,95.8688,VALID,-0.0339617,VALID,19.1968,VALID,290,VALID,0,
2001-09-26, 03:21:00,VALID,915.228,VALID,0,VALID,96.0214,VALID,-0.0509425,VALID,19.1744,VALID,342,VALID,0.389974,
2001-09-26, 03:22:00,VALID,915.234,VALID,0,VALID,95.9922,VALID,-0.0509425,VALID,19.1615,VALID,18,VALID,0.457854,
2001-09-26, 03:23:00,VALID,915.23,VALID,0,VALID,96.2299,VALID,0,VALID,19.1349,VALID,5,VALID,0.8125,
2001-09-26, 03:24:00,VALID,915.236,VALID,0,VALID,96.3686,VALID,-0.0339617,VALID,19.1546,VALID,360,VALID,0.723895,
2001-09-26, 03:25:00,VALID,915.223,VALID,0,VALID,96.4143,VALID,-0.0339617,VALID,19.1777,VALID,15,VALID,0.897266,
2001-09-26, 03:26:00,VALID,915.21,VALID,0,VALID,96.3342,VALID,-0.0169808,VALID,19.2035,VALID,14,VALID,1.14268,
2001-09-26, 03:27:00,VALID,915.215,VALID,0,VALID,96.352,VALID,0,VALID,19.2356,VALID,2,VALID,1.29962,
2001-09-26, 03:28:00,VALID,915.22,VALID,0,VALID,96.1689,VALID,0,VALID,19.2574,VALID,1,VALID,1.23379,
2001-09-26, 03:29:00,VALID,915.237,VALID,0,VALID,96.0913,VALID,-0.0169808,VALID,19.3034,VALID,7,VALID,1.37027,
2001-09-26, 03:30:00,VALID,915.246,VALID,0,VALID,95.9082,VALID,0,VALID,19.3357,VALID,11,VALID,1.20335,
2001-09-26, 03:31:00,VALID,915.257,VALID,0,VALID,95.6946,VALID,-0.0339617,VALID,19.3454,VALID,9,VALID,1.1246,
2001-09-26, 03:32:00,VALID,915.263,VALID,0,VALID,95.6336,VALID,0,VALID,19.3352,VALID,17,VALID,1.05816,
2001-09-26, 03:33:00,VALID,915.279,VALID,0,VALID,95.5496,VALID,-0.0169808,VALID,19.3394,VALID,8,VALID,1.21875,
2001-09-26, 03:34:00,VALID,915.305,VALID,0,VALID,95.5929,VALID,-0.0169808,VALID,19.3322,VALID,11,VALID,1.26663,
2001-09-26, 03:35:00,VALID,915.315,VALID,0,VALID,95.6412,VALID,-0.0169808,VALID,19.3255,VALID,11,VALID,1.09169,
2001-09-26, 03:36:00,VALID,915.339,VALID,0,VALID,95.7251,VALID,-0.0169808,VALID,19.3422,VALID,14,VALID,0.986225,
2001-09-26, 03:37:00,VALID,915.358,VALID,0,VALID,95.8243,VALID,-0.0339617,VALID,19.3685,VALID,358,VALID,1.14717,